Weather History for West Vancouver, BC

Change the Weather History Date:

Thursday, October 13, 2011

  Actual Average Record
Temperature  
Mean Temperature 48 °F -  
Max Temperature 55 °F - - ()
Min Temperature 42 °F - - ()
Degree Days  
Heating Degree Days 16    
Moisture  
Dew Point 43 °F    
Average Humidity 83    
Maximum Humidity 93    
Minimum Humidity 65    
Precipitation  
Precipitation 0.82 in - - ()
Sea Level Pressure  
Sea Level Pressure 30.19 in    
Wind  
Wind Speed 1 mph ()    
Max Wind Speed 4 mph    
Max Gust Speed -    
T = Trace of Precipitation, MM = Missing Value Source: Averaged Metar Reports

Daily Weather History Graph

Daily Weather History Graph

Search for Another Location

Airport:

Trip Planner

Search our weather history database for the weather conditions in past years. The results will help you decide how hot, cold, wet, or windy it might be!

Date:

Astronomy

Oct. 13, 2011 Rise Set
Actual Time 7:30 AM PDT 6:26 PM PDT
Civil Twilight 6:58 AM PDT 6:58 PM PDT
Nautical Twilight 6:21 AM PDT 7:35 PM PDT
Astronomical Twilight 5:44 AM PDT 8:12 PM PDT
Moon 6:49 PM PDT (10/13) 9:22 AM PDT (10/13)
Length of Visible Light 12h 00m
Length of Day
10h 56m
Full, 97% of the Moon is Illuminated
Oct 13
Full
Oct 19
Last Quarter
Oct 26
New
Nov 2
First Quarter
Nov 10
Full

Hourly Weather History & Observations

Time (PDT) Temp. Windchill Dew Point Humidity Pressure Visibility Wind Dir Wind Speed Gust Speed Precip Events Conditions
12:00 AM 45.1 °F 43.7 °F 43.2 °F 93% 30.23 in - NNE 3.5 mph - N/A   Unknown
1:00 AM 43.3 °F - 41.2 °F 92% 30.24 in - NNW 1.2 mph - N/A   Unknown
2:00 AM 43.0 °F - 41.2 °F 93% 30.25 in - North 2.3 mph - N/A   Unknown
4:00 AM 45.0 °F - 43.2 °F 93% 30.24 in - NE 1.2 mph - N/A   Unknown
5:00 AM 45.1 °F - 43.3 °F 93% 30.24 in - NNE 1.2 mph - N/A   Unknown
6:00 AM 45.9 °F - 43.5 °F 92% 30.24 in - Calm Calm - N/A   Unknown
7:00 AM 44.6 °F - 42.4 °F 92% 30.24 in - Calm Calm - N/A   Unknown
8:00 AM 45.0 °F - 42.4 °F 91% 30.25 in - Calm Calm - N/A   Unknown
9:00 AM 46.8 °F - 44.2 °F 91% 30.25 in - SSW 1.2 mph - N/A   Unknown
10:00 AM 46.6 °F - 44.4 °F 92% 30.25 in - Calm Calm - N/A   Unknown
11:00 AM 53 °F - 45 °F 65% 30.25 in - South 2.3 mph - -  
11:00 AM 52.7 °F - 44.6 °F 74% 30.25 in - South 2.3 mph - N/A   Unknown
12:00 PM 53.6 °F - 43.7 °F 69% 30.23 in - South 1.2 mph - N/A   Unknown
1:00 PM 52.2 °F - 44.2 °F 74% 30.22 in - SW 1.2 mph - N/A   Unknown
3:00 PM 54.0 °F - 45.3 °F 73% 30.18 in - SSE 1.2 mph - 0.82 in   Unknown
4:00 PM 53.6 °F - 44.4 °F 71% 30.16 in - SE 1.2 mph - N/A   Unknown
5:00 PM 52 °F - 45 °F 68% 30.15 in - Calm Calm - -  
5:00 PM 51.6 °F - 44.6 °F 77% 30.15 in - Calm Calm - N/A   Unknown
6:00 PM 50.0 °F - 45.0 °F 83% 30.12 in - Calm Calm - N/A   Unknown
7:00 PM 48.0 °F - 43.7 °F 85% 30.11 in - North 1.2 mph - N/A   Unknown
9:00 PM 45.9 °F - 41.7 °F 85% 30.08 in - NNE 1.2 mph - N/A   Unknown
10:00 PM 45.0 °F - 41.2 °F 87% 30.08 in - North 2.3 mph - N/A   Unknown
11:00 PM 45 °F - 41 °F 79% 30.06 in - North 2.3 mph - -  
11:00 PM 45.3 °F - 40.6 °F 84% 30.06 in - North 2.3 mph - N/A   Unknown